EW2345 Weather Reports


time (UTC)temp
C
wind
direction
speed
KPH
gust
KPH
rain 1hr
cm
rain 24hr
cm
rain mn
cm
humidity
%
barometer
mb
20260507015409 11 67 0.0 0.0 0.00 0.03 0.00 84 1012.9
20260507014910 11 67 0.0 0.0 0.00 0.03 0.00 84 1012.9
20260507014410 11 67 0.0 0.0 0.00 0.03 0.00 84 1012.9
20260507013910 11 67 0.0 0.0 0.00 0.03 0.00 84 1012.9
20260507013410 11 67 0.0 0.0 0.00 0.03 0.00 84 1012.9
20260507012911 11 67 0.0 0.0 0.00 0.03 0.00 84 1012.9
20260507011910 11 67 0.0 0.0 0.00 0.03 0.00 84 1012.9
20260507011410 11 67 0.0 0.0 0.00 0.03 0.00 84 1012.9
20260507010410 11 67 0.0 0.0 0.00 0.03 0.00 84 1012.9
20260507005911 11 67 0.0 0.0 0.00 0.03 0.00 84 1012.9
20260507005409 11 67 0.0 0.0 0.00 0.03 0.00 84 1012.9
20260507004910 11 67 0.0 0.0 0.00 0.03 0.00 84 1012.9
20260507004410 11 67 0.0 0.0 0.00 0.03 0.00 84 1012.9
20260507003910 11 67 0.0 0.0 0.00 0.03 0.00 84 1012.9
20260507003410 11 67 0.0 0.0 0.00 0.03 0.00 84 1012.9
20260507002911 11 67 0.0 0.0 0.00 0.03 0.00 84 1012.9
20260507002410 11 67 0.0 0.0 0.00 0.03 0.00 84 1012.9
20260507001410 11 67 0.0 0.0 0.00 0.03 0.00 84 1012.9
20260507000910 11 67 0.0 0.0 0.00 0.03 0.00 84 1012.9
20260507000412 11 67 0.0 0.0 0.00 0.03 0.00 84 1012.9
20260506234910 11 67 0.0 0.0 0.00 0.03 0.00 84 1012.9
20260506234410 11 67 0.0 0.0 0.00 0.03 0.00 84 1012.9
20260506233910 11 67 0.0 0.0 0.00 0.03 0.00 84 1012.9
20260506233410 11 67 0.0 0.0 0.00 0.03 0.00 84 1012.9
20260506232911 11 67 0.0 0.0 0.00 0.03 0.00 84 1012.9
20260506231909 11 67 0.0 0.0 0.00 0.03 0.00 84 1012.9
20260506231410 11 67 0.0 0.0 0.00 0.03 0.00 84 1012.9
20260506230911 11 67 0.0 0.0 0.00 0.03 0.00 84 1012.9
20260506230410 11 67 0.0 0.0 0.00 0.03 0.00 84 1012.9
20260506225409 11 67 0.0 0.0 0.00 0.03 0.00 84 1012.9
20260506224909 11 67 0.0 0.0 0.00 0.03 0.00 84 1012.9
20260506224409 11 67 0.0 0.0 0.00 0.03 0.00 84 1012.9
20260506223910 11 67 0.0 0.0 0.00 0.03 0.00 84 1012.9
20260506223410 11 67 0.0 0.0 0.00 0.03 0.00 84 1012.9
20260506222410 11 67 0.0 0.0 0.00 0.03 0.00 84 1012.9
20260506221910 11 67 1.6 4.8 0.00 0.03 0.00 84 1012.9
20260506221410 11 66 1.6 8.0 0.00 0.03 0.00 84 1013.0
20260506220910 12 69 8.0 11.3 0.00 0.03 0.00 84 1013.1
20260506220410 12 82 3.2 8.0 0.00 0.03 0.00 84 1013.1
20260506215910 12 80 4.8 11.3 0.00 0.03 0.00 83 1013.1
20260506215410 12 66 1.6 12.9 0.00 0.03 0.03 83 1013.1
20260506214910 12 79 4.8 11.3 0.00 0.03 0.03 83 1013.1
20260506214410 12 71 3.2 9.7 0.00 0.03 0.03 83 1013.1
20260506213910 12 73 4.8 11.3 0.00 0.03 0.03 82 1013.1
20260506212409 12 79 6.4 12.9 0.00 0.03 0.03 82 1013.1
20260506211910 12 72 4.8 11.3 0.00 0.03 0.03 82 1013.1
20260506211410 12 76 3.2 9.7 0.00 0.03 0.03 82 1013.1
20260506210910 12 76 1.6 8.0 0.00 0.03 0.03 82 1013.1
20260506210410 12 76 3.2 8.0 0.00 0.03 0.03 82 1013.1
20260506205911 12 75 3.2 9.7 0.00 0.03 0.03 82 1013.1
20260506205410 12 62 3.2 11.3 0.00 0.03 0.03 82 1013.0
20260506204910 12 26 4.8 12.9 0.00 0.03 0.03 83 1013.0
20260506204410 12 63 4.8 14.5 0.00 0.03 0.03 83 1012.9
20260506203909 12 74 3.2 9.7 0.00 0.03 0.03 84 1012.8
20260506203410 12 75 3.2 11.3 0.00 0.03 0.03 83 1012.8
20260506202911 12 238 0.0 8.0 0.00 0.03 0.03 83 1012.8
20260506202410 12 238 0.0 1.6 0.00 0.03 0.03 83 1012.8
20260506201910 12 238 0.0 1.6 0.00 0.03 0.03 83 1012.7
20260506201410 12 238 0.0 3.2 0.00 0.03 0.03 82 1012.7
20260506200910 12 238 4.8 8.0 0.00 0.03 0.03 82 1012.7
20260506200410 12 238 4.8 8.0 0.00 0.03 0.03 81 1012.6
20260506195911 13 238 3.2 8.0 0.00 0.03 0.03 81 1012.6
20260506195409 13 238 4.8 9.7 0.00 0.03 0.03 81 1012.6
20260506194410 13 238 8.0 11.3 0.00 0.03 0.03 80 1012.6
20260506193910 13 238 8.0 9.7 0.00 0.03 0.03 80 1012.5
20260506193410 13 238 6.4 9.7 0.00 0.03 0.03 79 1012.5
20260506192911 13 238 8.0 9.7 0.00 0.03 0.03 79 1012.5
20260506192410 13 238 8.0 9.7 0.00 0.03 0.03 79 1012.4
20260506191910 13 238 8.0 11.3 0.00 0.03 0.03 78 1012.4
20260506191410 14 238 8.0 9.7 0.00 0.03 0.03 78 1012.4
20260506190910 14 238 6.4 9.7 0.00 0.03 0.03 78 1012.3
20260506190410 14 238 6.4 9.7 0.00 0.03 0.03 77 1012.4
20260506185911 14 238 3.2 9.7 0.00 0.03 0.03 77 1012.4
20260506185410 14 238 4.8 8.0 0.00 0.03 0.03 77 1012.3
20260506184410 14 238 8.0 11.3 0.00 0.03 0.03 77 1012.3
20260506183410 14 265 4.8 11.3 0.00 0.03 0.03 77 1012.3
20260506182911 14 281 4.8 8.0 0.00 0.03 0.03 77 1012.2
20260506182410 14 281 3.2 8.0 0.00 0.03 0.03 76 1012.3
20260506181910 14 281 3.2 8.0 0.00 0.03 0.03 77 1012.3
20260506181409 14 281 0.0 3.2 0.00 0.03 0.03 77 1012.2
20260506180910 14 281 3.2 12.9 0.00 0.03 0.03 77 1012.3
20260506180410 14 211 3.2 11.3 0.00 0.03 0.03 79 1012.3
20260506175910 14 211 3.2 8.0 0.00 0.03 0.03 80 1012.3
20260506175409 14 211 8.0 11.3 0.00 0.03 0.03 80 1012.3
20260506174909 14 211 8.0 9.7 0.00 0.05 0.03 81 1012.3
20260506173909 14 211 8.0 11.3 0.00 0.05 0.03 80 1012.4
20260506173409 14 211 9.7 14.5 0.00 0.08 0.03 81 1012.5
20260506172911 14 209 9.7 14.5 0.00 0.08 0.03 82 1012.5
20260506172410 14 227 11.3 16.1 0.00 0.08 0.03 81 1012.4
20260506171910 14 236 9.7 16.1 0.00 0.08 0.03 79 1012.5
20260506165910 15 241 11.3 19.3 0.00 0.08 0.03 78 1012.6
20260506165410 15 248 12.9 20.9 0.00 0.08 0.03 77 1012.6
20260506164909 15 246 11.3 19.3 0.00 0.08 0.03 77 1012.5
20260506164409 15 238 14.5 22.5 0.00 0.08 0.03 76 1012.5
20260506163910 15 248 11.3 19.3 0.00 0.08 0.03 74 1012.6
20260506163410 15 230 11.3 19.3 0.00 0.08 0.03 71 1012.6
20260506162910 15 234 12.9 19.3 0.00 0.08 0.03 71 1012.5
20260506162410 16 216 14.5 22.5 0.00 0.08 0.03 72 1012.5
20260506161910 16 202 14.5 22.5 0.00 0.08 0.03 71 1012.5
20260506161410 16 207 14.5 22.5 0.00 0.08 0.03 72 1012.6
20260506160910 16 207 14.5 24.1 0.00 0.08 0.03 70 1012.6
20260506160410 16 208 16.1 29.0 0.00 0.08 0.03 67 1012.6
20260506155410 16 45 0.0 1.6 0.00 0.08 0.03 65 1012.5
20260506154910 16 45 0.0 0.0 0.00 0.08 0.03 63 1012.5
20260506154410 16 45 0.0 3.2 0.00 0.08 0.03 60 1012.5
20260506153909 16 45 3.2 4.8 0.00 0.08 0.03 59 1012.5
20260506153410 17 45 0.0 8.0 0.00 0.08 0.03 57 1012.6
20260506152911 17 45 0.0 3.2 0.00 0.08 0.03 58 1012.5
20260506152409 17 45 0.0 3.2 0.00 0.08 0.03 56 1012.6
20260506151910 17 45 1.6 4.8 0.00 0.08 0.03 54 1012.6
20260506150909 17 45 1.6 4.8 0.00 0.08 0.03 55 1012.7
20260506145911 17 45 3.2 8.0 0.00 0.08 0.03 58 1012.9
20260506145410 17 45 1.6 8.0 0.00 0.13 0.03 57 1013.0
20260506144910 17 45 1.6 4.8 0.00 0.18 0.03 57 1013.1
20260506144410 17 45 0.0 4.8 0.00 0.18 0.03 56 1013.2
20260506143910 17 45 1.6 4.8 0.00 0.20 0.03 56 1013.3
20260506143410 17 45 1.6 4.8 0.00 0.20 0.03 56 1013.3
20260506142410 17 45 0.0 4.8 0.00 0.23 0.03 54 1013.4
20260506141910 17 45 3.2 4.8 0.00 0.23 0.03 53 1013.5
20260506141410 17 45 3.2 8.0 0.00 0.23 0.03 54 1013.5
20260506135410 17 46 4.8 9.7 0.00 0.23 0.03 54 1013.7
20260506134910 17 46 3.2 11.3 0.00 0.23 0.03 53 1013.7
20260506134410 17 46 3.2 11.3 0.00 0.23 0.03 54 1013.8
20260506133411 17 46 4.8 11.3 0.00 0.23 0.03 55 1013.8
20260506132911 16 51 1.6 9.7 0.00 0.23 0.03 54 1013.9
20260506132410 16 52 1.6 9.7 0.00 0.23 0.03 54 1013.9
20260506131910 17 73 1.6 9.7 0.00 0.23 0.03 56 1013.9
20260506131410 17 326 1.6 8.0 0.00 0.23 0.03 59 1013.9
20260506130910 17 326 9.7 16.1 0.00 0.23 0.03 56 1014.0
20260506130410 17 51 1.6 8.0 0.00 0.23 0.03 56 1014.1
20260506125910 17 50 1.6 12.9 0.00 0.23 0.03 54 1014.2
20260506125409 17 34 3.2 16.1 0.00 0.23 0.03 56 1014.1
20260506124909 17 355 11.3 19.3 0.00 0.23 0.03 53 1014.2
20260506124410 17 26 3.2 16.1 0.00 0.23 0.03 53 1014.2
20260506123910 17 49 4.8 16.1 0.00 0.23 0.03 51 1014.2
20260506123410 17 32 11.3 22.5 0.00 0.23 0.03 56 1014.3
20260506122911 17 44 4.8 12.9 0.00 0.23 0.03 60 1014.3
20260506122409 16 78 6.4 16.1 0.00 0.23 0.03 59 1014.4
20260506121411 17 58 4.8 12.9 0.00 0.23 0.03 57 1014.5
20260506120911 16 33 8.0 14.5 0.00 0.23 0.03 62 1014.6
20260506120410 16 27 11.3 19.3 0.00 0.23 0.03 56 1014.6
20260506115910 17 64 4.8 16.1 0.00 0.23 0.03 59 1014.6
20260506115410 16 46 4.8 11.3 0.00 0.23 0.03 60 1014.7
20260506114910 16 63 6.4 16.1 0.00 0.23 0.03 58 1014.9
20260506114409 16 41 1.6 9.7 0.00 0.23 0.03 60 1014.9
20260506113910 16 41 4.8 11.3 0.00 0.23 0.03 58 1015.0
20260506113410 15 46 3.2 11.3 0.00 0.23 0.03 62 1015.1
20260506112911 15 39 8.0 16.1 0.00 0.23 0.03 65 1015.1
20260506111410 15 46 4.8 11.3 0.00 0.23 0.03 66 1015.2
20260506110910 15 49 4.8 9.7 0.00 0.23 0.03 66 1015.3
20260506110410 15 50 8.0 11.3 0.00 0.23 0.03 65 1015.4
20260506105911 15 39 8.0 14.5 0.00 0.23 0.03 64 1015.4
20260506105410 15 32 8.0 16.1 0.00 0.23 0.03 65 1015.3
20260506104910 15 47 8.0 11.3 0.00 0.23 0.03 65 1015.4
20260506103910 15 34 9.7 16.1 0.00 0.23 0.03 66 1015.4
20260506102911 15 57 4.8 12.9 0.00 0.23 0.03 68 1015.5
20260506102410 15 47 3.2 11.3 0.00 0.23 0.03 70 1015.6
20260506101910 15 28 9.7 14.5 0.00 0.23 0.03 71 1015.6
20260506101410 14 38 3.2 11.3 0.00 0.23 0.03 72 1015.6
20260506100910 14 36 9.7 12.9 0.00 0.23 0.03 73 1015.6
20260506100410 14 47 4.8 9.7 0.00 0.23 0.03 71 1015.6
20260506095911 13 40 0.0 3.2 0.00 0.23 0.03 75 1015.7
20260506095410 13 40 1.6 11.3 0.00 0.23 0.03 72 1015.8
20260506094910 14 49 3.2 9.7 0.00 0.23 0.03 76 1015.8
20260506094410 14 30 8.0 12.9 0.00 0.23 0.03 76 1015.8
20260506093910 13 41 4.8 12.9 0.00 0.23 0.03 75 1015.9
20260506093410 13 35 8.0 11.3 0.00 0.23 0.03 77 1015.9
20260506092911 13 34 3.2 9.7 0.00 0.23 0.03 75 1015.9
20260506092410 13 35 6.4 11.3 0.00 0.23 0.03 78 1016.0
20260506091910 13 68 3.2 11.3 0.00 0.23 0.03 76 1016.0
20260506090910 12 41 1.6 8.0 0.00 0.23 0.03 79 1016.0
20260506090410 12 41 3.2 11.3 0.00 0.23 0.03 79 1016.0
20260506085911 13 41 4.8 11.3 0.00 0.23 0.03 79 1016.1
20260506085410 12 41 1.6 4.8 0.00 0.23 0.03 79 1016.1
20260506084910 12 41 3.2 9.7 0.00 0.23 0.03 80 1016.1
20260506084409 12 41 1.6 4.8 0.00 0.23 0.03 81 1016.1
20260506083910 12 41 1.6 8.0 0.00 0.23 0.03 85 1016.1
20260506083410 12 41 1.6 8.0 0.00 0.23 0.03 86 1016.0
20260506082911 11 41 3.2 8.0 0.00 0.23 0.03 88 1016.0
20260506082410 11 41 4.8 11.3 0.00 0.23 0.03 89 1016.0
20260506081910 11 180 1.6 4.8 0.00 0.23 0.03 91 1016.0
20260506080910 11 180 1.6 4.8 0.00 0.23 0.03 92 1016.1
20260506080410 10 180 1.6 4.8 0.00 0.23 0.03 93 1016.1
20260506073410 9 182 3.2 8.0 0.00 0.23 0.03 100 1016.1
20260506072911 8 183 3.2 8.0 0.00 0.23 0.03 100 1016.2
20260506072411 8 184 4.8 8.0 0.00 0.23 0.03 100 1016.1
20260506071910 8 187 0.0 4.8 0.00 0.23 0.03 100 1016.1
20260506071410 8 194 0.0 3.2 0.00 0.23 0.03 100 1016.2
20260506070410 8 194 0.0 4.8 0.00 0.23 0.03 100 1016.2
20260506062410 6 194 0.0 3.2 0.03 0.23 0.03 99 1016.0
20260506061910 6 194 0.0 0.0 0.03 0.23 0.03 99 1016.0
20260506061410 6 194 0.0 0.0 0.03 0.23 0.03 99 1015.9
20260506060910 6 194 0.0 0.0 0.03 0.23 0.03 99 1016.0
20260506060409 6 194 0.0 1.6 0.03 0.23 0.03 99 1016.1
20260506050910 6 194 1.6 4.8 0.00 0.23 0.00 99 1015.9
20260506050413 6 194 1.6 4.8 0.00 0.23 0.00 99 1015.8
20260506044910 7 194 1.6 3.2 0.00 0.23 0.00 99 1015.8
20260506043911 7 194 0.0 0.0 0.00 0.23 0.00 99 1015.7
20260506043410 7 194 0.0 0.0 0.00 0.23 0.00 99 1015.7
20260506042911 7 194 3.2 4.8 0.00 0.23 0.00 99 1015.7
20260506042410 7 194 3.2 4.8 0.00 0.23 0.00 99 1015.8
20260506041910 7 194 3.2 4.8 0.00 0.23 0.00 99 1015.7
20260506041410 7 194 1.6 4.8 0.00 0.23 0.00 99 1015.8
20260506040910 7 194 1.6 4.8 0.00 0.23 0.00 99 1015.9
20260506040410 7 194 1.6 8.0 0.00 0.23 0.00 99 1015.9
20260506035911 7 197 6.4 9.7 0.00 0.23 0.00 99 1015.8
20260506034910 8 197 1.6 4.8 0.00 0.23 0.00 99 1015.9
20260506034410 8 197 1.6 4.8 0.00 0.23 0.00 99 1015.9
20260506033910 8 197 1.6 3.2 0.00 0.23 0.00 99 1015.9
20260506033410 8 197 1.6 4.8 0.00 0.23 0.00 99 1015.9
20260506032911 8 197 3.2 4.8 0.00 0.23 0.00 98 1016.0
20260506032410 8 197 3.2 4.8 0.00 0.23 0.00 98 1015.9
20260506031910 8 197 0.0 4.8 0.00 0.23 0.00 98 1015.9
20260506031410 8 197 0.0 3.2 0.00 0.23 0.00 98 1015.9
20260506030910 8 197 0.0 3.2 0.00 0.23 0.00 99 1016.0
20260506030411 8 197 0.0 3.2 0.00 0.23 0.00 98 1016.0
20260506025911 8 197 0.0 3.2 0.00 0.23 0.00 98 1016.0
20260506025410 8 197 0.0 0.0 0.00 0.23 0.00 98 1016.0
20260506024910 8 197 0.0 4.8 0.00 0.23 0.00 98 1016.0
20260506023910 9 197 0.0 0.0 0.00 0.23 0.00 99 1015.9
20260506022411 9 197 0.0 0.0 0.00 0.23 0.00 99 1016.1
20260506021410 9 197 0.0 0.0 0.00 0.23 0.00 99 1016.1
20260506015911 9 197 0.0 3.2 0.00 0.23 0.00 98 1016.2